Cosmos 1408 Rocket - Orbit

View from above orbital plane
View from above orbital plane
View from above satellite
View from above satellite

Ground track
Ground track

The orbit data is extracted from the following two-line orbital elements,

1 13553U 82092B   13145.74184257  .00000317  00000-0  35799-4 0  5949
2 13553 082.5681 175.3937 0020335 262.5327 213.3152 14.83184842657068
Epoch (UTC): 25 May 2013 17:48:15
Eccentricity: 0.0020335
inclination: 82.5681°
perigee height: 605 km
apogee height: 633 km
right ascension of ascending node: 175.3937°
argument of perigee: 262.5327°
revolutions per day: 14.83184842
mean anomaly at epoch: 213.3152°
orbit number at epoch: 65706

The dashed part of the orbit path shows where the satellite is in the earth's shadow,  

Developed and maintained by Chris Peat, Heavens-Above GmbH. Please read the updated FAQ before sending e-mail. Imprint. DLR